Time,TemperatureF,DewpointF,PressureIn,WindDirection,WindDirectionDegrees,WindSpeedMPH,WindSpeedGustMPH,Humidity,HourlyPrecipIn,Conditions,Clouds,dailyrainin,SolarRadiationWatts/m^2,SoftwareType,DateUTC
2013-07-24 00:03:00,85.3,68.8,29.80,SSW,205,2.3,2.3,58,0.00,CLR,,0.00,0.0,WeatherDisplay:10.37,2013-07-24 05:03:00,
2013-07-24 00:08:00,85.1,69.2,29.80,SSW,206,1.2,0.0,59,0.00,CLR,,0.00,0.0,WeatherDisplay:10.37,2013-07-24 05:08:00,
2013-07-24 00:13:00,85.0,69.6,29.80,SSW,205,2.0,0.0,60,0.00,CLR,,0.00,0.0,WeatherDisplay:10.37,2013-07-24 05:13:00,
2013-07-24 00:18:00,84.8,69.4,29.79,SSW,205,1.2,0.0,60,0.00,CLR,,0.00,0.0,WeatherDisplay:10.37,2013-07-24 05:18:00,
2013-07-24 00:23:00,84.5,69.1,29.79,South,181,1.2,1.2,60,0.00,CLR,,0.00,0.0,WeatherDisplay:10.37,2013-07-24 05:23:00,
2013-07-24 00:28:00,84.3,68.9,29.79,South,181,2.3,2.3,60,0.00,CLR,,0.00,0.0,WeatherDisplay:10.37,2013-07-24 05:28:00,
2013-07-24 00:33:00,83.9,68.5,29.79,SSW,202,3.5,3.5,60,0.00,CLR,,0.00,0.0,WeatherDisplay:10.37,2013-07-24 05:33:00,
2013-07-24 00:38:00,83.8,68.9,29.79,SSW,198,3.5,3.5,61,0.00,CLR,,0.00,0.0,WeatherDisplay:10.37,2013-07-24 05:38:00,
2013-07-24 00:43:00,83.5,69.1,29.79,SSW,202,3.5,3.5,62,0.00,CLR,,0.00,0.0,WeatherDisplay:10.37,2013-07-24 05:43:00,
2013-07-24 00:45:00,83.4,69.0,29.79,South,191,3.5,3.5,62,0.00,CLR,,0.00,0.0,WeatherDisplay:10.37,2013-07-24 05:45:00,
2013-07-24 00:48:00,83.4,69.0,29.79,South,191,3.5,3.5,62,0.00,CLR,,0.00,0.0,WeatherDisplay:10.37,2013-07-24 05:48:00,
2013-07-24 00:53:00,83.4,69.0,29.79,South,191,3.5,3.5,62,0.00,CLR,,0.00,0.0,WeatherDisplay:10.37,2013-07-24 05:53:00,
2013-07-24 00:58:00,82.9,68.5,29.79,SSW,211,2.3,2.3,62,0.00,CLR,,0.00,0.0,WeatherDisplay:10.37,2013-07-24 05:58:00,
2013-07-24 01:03:00,82.8,68.4,29.79,SSW,213,4.0,4.0,62,0.00,CLR,,0.00,0.0,WeatherDisplay:10.37,2013-07-24 06:03:00,
2013-07-24 01:08:00,82.5,68.6,29.79,SSW,203,3.5,3.5,63,0.00,CLR,,0.00,0.0,WeatherDisplay:10.37,2013-07-24 06:08:00,
2013-07-24 01:13:00,82.4,68.5,29.78,SSW,205,4.0,4.0,63,0.00,CLR,,0.00,0.0,WeatherDisplay:10.37,2013-07-24 06:13:00,
2013-07-24 01:18:00,82.1,68.7,29.78,SSW,196,3.5,3.5,64,0.00,CLR,,0.00,0.0,WeatherDisplay:10.37,2013-07-24 06:18:00,
2013-07-24 01:23:00,82.1,68.7,29.78,South,188,5.0,5.0,64,0.00,CLR,,0.00,0.0,WeatherDisplay:10.37,2013-07-24 06:23:00,
2013-07-24 01:28:00,81.8,68.9,29.79,SSW,213,5.0,5.0,65,0.00,CLR,,0.00,0.0,WeatherDisplay:10.37,2013-07-24 06:28:00,
2013-07-24 01:33:00,81.8,68.9,29.79,SSW,210,3.5,3.5,65,0.00,CLR,,0.00,0.0,WeatherDisplay:10.37,2013-07-24 06:33:00,
2013-07-24 01:38:00,81.5,68.6,29.80,South,181,3.5,3.5,65,0.00,CLR,,0.00,0.0,WeatherDisplay:10.37,2013-07-24 06:38:00,
2013-07-24 01:43:00,81.5,68.6,29.80,SSW,200,4.6,4.6,65,0.00,CLR,,0.00,0.0,WeatherDisplay:10.37,2013-07-24 06:43:00,
2013-07-24 01:48:00,81.5,68.6,29.80,SSW,200,4.6,4.6,65,0.00,CLR,,0.00,0.0,WeatherDisplay:10.37,2013-07-24 06:48:00,
2013-07-24 01:53:00,81.3,68.4,29.78,SW,232,5.8,5.8,65,0.00,CLR,,0.00,0.0,WeatherDisplay:10.37,2013-07-24 06:53:00,
2013-07-24 01:58:00,81.3,68.4,29.78,SSW,200,11.5,11.5,65,0.00,CLR,,0.00,0.0,WeatherDisplay:10.37,2013-07-24 06:58:00,
2013-07-24 02:03:00,81.4,68.5,29.79,WSW,248,5.8,5.8,65,0.00,CLR,,0.00,0.0,WeatherDisplay:10.37,2013-07-24 07:03:00,
2013-07-24 02:08:00,81.5,68.6,29.79,WSW,250,12.7,12.7,65,0.00,CLR,,0.00,0.0,WeatherDisplay:10.37,2013-07-24 07:08:00,
2013-07-24 02:13:00,81.6,68.7,29.79,West,264,12.7,12.7,65,0.00,CLR,,0.00,0.0,WeatherDisplay:10.37,2013-07-24 07:13:00,
2013-07-24 02:18:00,81.9,68.5,29.80,WNW,294,8.1,8.1,64,0.00,CLR,,0.00,0.0,WeatherDisplay:10.37,2013-07-24 07:18:00,
2013-07-24 02:23:00,82.1,68.7,29.80,SW,215,8.1,8.1,64,0.00,CLR,,0.00,0.0,WeatherDisplay:10.37,2013-07-24 07:23:00,
2013-07-24 02:28:00,82.2,68.3,29.80,SW,219,8.1,8.1,63,0.00,CLR,,0.00,0.0,WeatherDisplay:10.37,2013-07-24 07:28:00,
2013-07-24 02:33:00,82.3,68.4,29.80,WSW,246,5.8,5.8,63,0.00,CLR,,0.00,0.0,WeatherDisplay:10.37,2013-07-24 07:33:00,
2013-07-24 02:38:00,82.3,68.4,29.80,WSW,246,5.8,5.8,63,0.00,CLR,,0.00,0.0,WeatherDisplay:10.37,2013-07-24 07:38:00,
2013-07-24 02:43:00,82.4,68.5,29.81,SW,217,6.9,6.9,63,0.00,CLR,,0.00,0.0,WeatherDisplay:10.37,2013-07-24 07:43:00,
2013-07-24 02:45:00,82.5,68.6,29.81,SSW,200,6.9,6.9,63,0.00,CLR,,0.00,0.0,WeatherDisplay:10.37,2013-07-24 07:45:00,
2013-07-24 02:48:00,82.5,68.6,29.81,SSW,200,6.9,6.9,63,0.00,CLR,,0.00,0.0,WeatherDisplay:10.37,2013-07-24 07:48:00,
2013-07-24 02:53:00,82.5,68.6,29.81,SSW,200,6.9,6.9,63,0.00,CLR,,0.00,0.0,WeatherDisplay:10.37,2013-07-24 07:53:00,
2013-07-24 02:58:00,82.5,68.6,29.81,WSW,257,3.5,3.5,63,0.00,CLR,,0.00,0.0,WeatherDisplay:10.37,2013-07-24 07:58:00,
2013-07-24 03:03:00,82.4,68.5,29.81,SW,225,3.5,3.5,63,0.00,CLR,,0.00,0.0,WeatherDisplay:10.37,2013-07-24 08:03:00,
2013-07-24 03:08:00,82.4,69.0,29.81,South,191,6.9,6.9,64,0.00,CLR,,0.00,0.0,WeatherDisplay:10.37,2013-07-24 08:08:00,
2013-07-24 03:13:00,82.3,68.9,29.80,SW,217,5.8,5.8,64,0.00,CLR,,0.00,0.0,WeatherDisplay:10.37,2013-07-24 08:13:00,
2013-07-24 03:18:00,82.2,68.8,29.80,SW,225,5.8,5.8,64,0.00,CLR,,0.00,0.0,WeatherDisplay:10.37,2013-07-24 08:18:00,
2013-07-24 03:23:00,82.1,68.7,29.79,SSW,207,4.6,4.6,64,0.00,CLR,,0.00,0.0,WeatherDisplay:10.37,2013-07-24 08:23:00,
2013-07-24 03:28:00,82.0,69.1,29.79,SSW,200,4.6,4.6,65,0.00,CLR,,0.00,0.0,WeatherDisplay:10.37,2013-07-24 08:28:00,
2013-07-24 03:33:00,81.8,68.9,29.78,SW,234,6.0,6.0,65,0.00,CLR,,0.00,0.0,WeatherDisplay:10.37,2013-07-24 08:33:00,
2013-07-24 03:38:00,81.7,68.8,29.79,SW,219,6.0,6.0,65,0.00,CLR,,0.00,0.0,WeatherDisplay:10.37,2013-07-24 08:38:00,
2013-07-24 03:43:00,81.6,68.7,29.78,South,181,6.0,6.0,65,0.00,CLR,,0.00,0.0,WeatherDisplay:10.37,2013-07-24 08:43:00,
2013-07-24 03:48:00,81.4,68.9,29.79,SW,215,6.0,6.0,66,0.00,CLR,,0.00,0.0,WeatherDisplay:10.37,2013-07-24 08:48:00,
2013-07-24 03:53:00,81.3,68.9,29.79,SSW,205,6.9,6.9,66,0.00,CLR,,0.00,0.0,WeatherDisplay:10.37,2013-07-24 08:53:00,
2013-07-24 03:58:00,81.2,69.2,29.80,WSW,250,5.8,5.8,67,0.00,CLR,,0.00,0.0,WeatherDisplay:10.37,2013-07-24 08:58:00,
2013-07-24 04:03:00,81.1,69.1,29.80,SW,234,5.8,5.8,67,0.00,CLR,,0.00,0.0,WeatherDisplay:10.37,2013-07-24 09:03:00,
2013-07-24 04:08:00,80.9,69.3,29.80,WSW,250,9.2,9.2,68,0.00,CLR,,0.00,0.0,WeatherDisplay:10.37,2013-07-24 09:08:00,
2013-07-24 04:13:00,80.8,69.2,29.81,SW,229,6.9,6.9,68,0.00,CLR,,0.00,0.0,WeatherDisplay:10.37,2013-07-24 09:13:00,
2013-07-24 04:18:00,80.7,69.6,29.81,SW,222,5.8,5.8,69,0.00,CLR,,0.00,0.0,WeatherDisplay:10.37,2013-07-24 09:18:00,
2013-07-24 04:23:00,80.7,69.6,29.82,WSW,239,4.6,4.6,69,0.00,CLR,,0.00,0.0,WeatherDisplay:10.37,2013-07-24 09:23:00,
2013-07-24 04:28:00,80.6,69.5,29.83,SW,215,5.8,5.8,69,0.00,CLR,,0.00,0.0,WeatherDisplay:10.37,2013-07-24 09:28:00,
2013-07-24 04:34:00,80.6,69.5,29.83,SSW,203,3.5,3.5,69,0.00,CLR,,0.00,0.0,WeatherDisplay:10.37,2013-07-24 09:34:00,
2013-07-24 04:39:00,80.5,69.8,29.83,SSW,213,6.9,6.9,70,0.00,CLR,,0.00,0.0,WeatherDisplay:10.37,2013-07-24 09:39:00,
2013-07-24 04:44:00,80.5,69.8,29.83,SSW,205,4.6,4.6,70,0.00,CLR,,0.00,0.0,WeatherDisplay:10.37,2013-07-24 09:44:00,
2013-07-24 04:49:00,80.5,70.2,29.83,South,177,4.0,4.0,71,0.00,CLR,,0.00,0.0,WeatherDisplay:10.37,2013-07-24 09:49:00,
2013-07-24 04:54:00,80.5,70.2,29.83,South,176,5.0,5.0,71,0.00,CLR,,0.00,0.0,WeatherDisplay:10.37,2013-07-24 09:54:00,
2013-07-24 04:59:00,80.5,70.2,29.83,SSW,198,4.6,4.6,71,0.00,CLR,,0.00,0.0,WeatherDisplay:10.37,2013-07-24 09:59:00,
2013-07-24 05:04:00,80.5,70.2,29.84,SSW,205,4.6,4.6,71,0.00,BKN,,0.00,0.0,WeatherDisplay:10.37,2013-07-24 10:04:00,
2013-07-24 05:09:00,80.5,70.6,29.84,South,187,4.6,4.6,72,0.00,BKN,,0.00,0.0,WeatherDisplay:10.37,2013-07-24 10:09:00,
2013-07-24 05:14:00,80.4,70.5,29.84,South,186,5.8,5.8,72,0.00,BKN,,0.00,0.0,WeatherDisplay:10.37,2013-07-24 10:14:00,
2013-07-24 05:19:00,80.5,70.6,29.85,SW,234,3.5,3.5,72,0.00,BKN,,0.00,0.0,WeatherDisplay:10.37,2013-07-24 10:19:00,
2013-07-24 05:24:00,80.5,71.0,29.89,North,351,8.1,8.1,73,0.00,BKN,,0.00,0.0,WeatherDisplay:10.37,2013-07-24 10:24:00,
2013-07-24 05:29:00,80.6,70.7,29.90,NNE,30,13.0,13.0,72,0.00,BKN,,0.00,0.0,WeatherDisplay:10.37,2013-07-24 10:29:00,
2013-07-24 05:34:00,80.9,71.0,29.89,SE,132,11.5,11.5,72,0.00,BKN,,0.00,0.0,WeatherDisplay:10.37,2013-07-24 10:34:00,
2013-07-24 05:39:00,81.1,70.8,29.90,ENE,73,10.4,10.4,71,0.00,BKN,,0.00,0.0,WeatherDisplay:10.37,2013-07-24 10:39:00,
2013-07-24 05:44:00,81.3,71.0,29.90,NNE,33,11.5,11.5,71,0.00,BKN,,0.00,0.0,WeatherDisplay:10.37,2013-07-24 10:44:00,
2013-07-24 05:49:00,81.2,70.9,29.91,ENE,76,14.0,14.0,71,0.00,BKN,,0.00,0.0,WeatherDisplay:10.37,2013-07-24 10:49:00,
2013-07-24 05:54:00,80.8,70.5,29.91,ENE,57,18.4,18.4,71,0.00,BKN,,0.00,0.0,WeatherDisplay:10.37,2013-07-24 10:54:00,
2013-07-24 05:59:00,80.1,70.3,29.91,ENE,65,18.4,18.4,72,0.00,BKN,,0.00,0.0,WeatherDisplay:10.37,2013-07-24 10:59:00,
2013-07-24 06:04:00,79.5,70.1,29.92,East,88,18.4,18.4,73,0.00,-RA,,0.00,0.0,WeatherDisplay:10.37,2013-07-24 11:04:00,
2013-07-24 06:09:00,79.0,70.0,29.91,East,100,15.0,15.0,74,0.00,-RA,,0.00,0.0,WeatherDisplay:10.37,2013-07-24 11:09:00,
2013-07-24 06:14:00,78.6,70.0,29.92,East,90,19.6,19.6,75,0.00,-RA,,0.00,0.0,WeatherDisplay:10.37,2013-07-24 11:14:00,
2013-07-24 06:19:00,78.1,69.9,29.92,ESE,117,17.3,17.3,76,0.00,-RA,,0.00,0.0,WeatherDisplay:10.37,2013-07-24 11:19:00,
2013-07-24 06:24:00,77.6,69.4,29.92,ENE,62,15.0,15.0,76,0.00,-RA,,0.00,0.0,WeatherDisplay:10.37,2013-07-24 11:24:00,
2013-07-24 06:29:00,77.1,68.9,29.92,ENE,61,17.3,17.3,76,0.00,-RA,,0.00,0.0,WeatherDisplay:10.37,2013-07-24 11:29:00,
2013-07-24 06:34:00,76.7,68.6,29.91,East,84,15.0,15.0,76,0.00,-RA,,0.00,0.0,WeatherDisplay:10.37,2013-07-24 11:34:00,
2013-07-24 06:39:00,76.4,68.3,29.91,ENE,71,15.0,15.0,76,0.00,-RA,,0.00,0.0,WeatherDisplay:10.37,2013-07-24 11:39:00,
2013-07-24 06:44:00,76.2,68.5,29.91,ENE,77,12.7,12.7,77,0.00,-RA,,0.00,0.0,WeatherDisplay:10.37,2013-07-24 11:44:00,
2013-07-24 06:49:00,76.1,68.4,29.91,ESE,117,13.8,13.8,77,0.00,-RA,,0.00,7.0,WeatherDisplay:10.37,2013-07-24 11:49:00,
2013-07-24 06:54:00,75.9,68.5,29.90,ENE,74,11.5,11.5,78,0.00,-RA,,0.00,9.0,WeatherDisplay:10.37,2013-07-24 11:54:00,
2013-07-24 06:59:00,75.8,68.4,29.90,ESE,122,12.7,12.7,78,0.00,-RA,,0.00,11.0,WeatherDisplay:10.37,2013-07-24 11:59:00,
2013-07-24 07:04:00,75.8,68.8,29.91,East,84,8.1,8.1,79,0.00,BKN,,0.00,11.0,WeatherDisplay:10.37,2013-07-24 12:04:00,
2013-07-24 07:09:00,75.7,68.7,29.91,SE,125,13.8,13.8,79,0.00,BKN,,0.00,12.0,WeatherDisplay:10.37,2013-07-24 12:09:00,
2013-07-24 07:14:00,75.5,68.5,29.90,ESE,109,12.0,12.0,79,0.00,BKN,,0.00,19.0,WeatherDisplay:10.37,2013-07-24 12:14:00,
2013-07-24 07:19:00,75.5,68.5,29.91,SE,129,7.0,7.0,79,0.00,BKN,,0.00,23.0,WeatherDisplay:10.37,2013-07-24 12:19:00,
2013-07-24 07:24:00,75.4,68.4,29.91,East,83,9.2,9.2,79,0.00,BKN,,0.00,35.0,WeatherDisplay:10.37,2013-07-24 12:24:00,
2013-07-24 07:29:00,75.4,68.4,29.91,ESE,117,9.2,9.2,79,0.00,BKN,,0.00,32.0,WeatherDisplay:10.37,2013-07-24 12:29:00,
2013-07-24 07:34:00,75.4,68.4,29.92,ESE,117,4.6,4.6,79,0.00,BKN,,0.00,32.0,WeatherDisplay:10.37,2013-07-24 12:34:00,
2013-07-24 07:39:00,75.4,68.4,29.91,ESE,107,3.5,3.5,79,0.00,BKN,,0.00,51.0,WeatherDisplay:10.37,2013-07-24 12:39:00,
2013-07-24 07:44:00,75.5,68.5,29.92,ESE,111,11.5,11.5,79,0.00,BKN,,0.00,56.0,WeatherDisplay:10.37,2013-07-24 12:44:00,
2013-07-24 07:49:00,75.5,68.5,29.92,SE,130,9.2,9.2,79,0.00,BKN,,0.00,62.0,WeatherDisplay:10.37,2013-07-24 12:49:00,
2013-07-24 07:54:00,75.6,68.6,29.92,East,92,6.9,6.9,79,0.00,BKN,,0.00,69.0,WeatherDisplay:10.37,2013-07-24 12:54:00,
2013-07-24 07:59:00,75.7,68.7,29.92,ESE,121,8.1,8.1,79,0.00,BKN,,0.00,74.0,WeatherDisplay:10.37,2013-07-24 12:59:00,
2013-07-24 08:04:00,75.7,68.7,29.92,SE,137,8.1,8.1,79,0.00,SCT,,0.00,86.0,WeatherDisplay:10.37,2013-07-24 13:04:00,
2013-07-24 08:09:00,75.8,68.8,29.90,ESE,119,13.8,13.8,79,0.00,SCT,,0.00,95.0,WeatherDisplay:10.37,2013-07-24 13:09:00,
2013-07-24 08:14:00,75.9,68.9,29.91,SE,124,6.9,6.9,79,0.00,SCT,,0.00,104.0,WeatherDisplay:10.37,2013-07-24 13:14:00,
2013-07-24 08:19:00,76.0,69.0,29.91,SE,141,6.9,6.9,79,0.00,SCT,,0.00,114.0,WeatherDisplay:10.37,2013-07-24 13:19:00,
2013-07-24 08:24:00,76.1,69.1,29.91,ESE,113,3.5,3.5,79,0.00,SCT,,0.00,121.0,WeatherDisplay:10.37,2013-07-24 13:24:00,
2013-07-24 08:29:00,76.3,69.3,29.91,ESE,105,8.1,8.1,79,0.00,SCT,,0.00,125.0,WeatherDisplay:10.37,2013-07-24 13:29:00,
2013-07-24 08:34:00,76.4,69.4,29.92,ESE,109,9.0,9.0,79,0.00,SCT,,0.00,128.0,WeatherDisplay:10.37,2013-07-24 13:34:00,
2013-07-24 08:39:00,76.6,69.6,29.92,East,98,6.9,6.9,79,0.00,SCT,,0.00,130.0,WeatherDisplay:10.37,2013-07-24 13:39:00,
2013-07-24 08:44:00,76.7,69.7,29.93,SE,133,4.6,4.6,79,0.00,SCT,,0.00,130.0,WeatherDisplay:10.37,2013-07-24 13:44:00,
2013-07-24 08:49:00,76.9,70.3,29.94,ESE,123,5.8,5.8,80,0.00,SCT,,0.00,132.0,WeatherDisplay:10.37,2013-07-24 13:49:00,
2013-07-24 08:54:00,77.1,70.1,29.94,ESE,107,5.8,5.8,79,0.00,SCT,,0.00,139.0,WeatherDisplay:10.37,2013-07-24 13:54:00,
2013-07-24 08:59:00,77.3,70.3,29.94,South,184,3.5,3.5,79,0.00,SCT,,0.00,146.0,WeatherDisplay:10.37,2013-07-24 13:59:00,
2013-07-24 09:04:00,77.5,70.5,29.94,ESE,116,4.0,4.0,79,0.00,BKN,,0.00,155.0,WeatherDisplay:10.37,2013-07-24 14:04:00,
2013-07-24 09:09:00,77.7,70.7,29.94,SE,138,4.6,4.6,79,0.00,BKN,,0.00,163.0,WeatherDisplay:10.37,2013-07-24 14:09:00,
2013-07-24 09:14:00,77.8,70.4,29.95,East,90,4.6,4.6,78,0.00,BKN,,0.00,135.0,WeatherDisplay:10.37,2013-07-24 14:14:00,
2013-07-24 09:19:00,78.0,70.6,29.96,NNE,18,3.0,3.0,78,0.00,BKN,,0.00,44.0,WeatherDisplay:10.37,2013-07-24 14:19:00,
2013-07-24 09:24:00,78.1,70.7,29.98,NNW,339,7.0,7.0,78,0.00,OVC,,0.00,19.0,WeatherDisplay:10.37,2013-07-24 14:24:00,
2013-07-24 09:29:00,78.2,70.4,29.99,NNW,344,26.5,26.5,77,0.00,OVC,,0.00,7.0,WeatherDisplay:10.37,2013-07-24 14:29:00,
2013-07-24 09:34:00,77.9,69.7,29.99,NNE,28,16.0,16.0,76,0.00,OVC,,0.00,46.0,WeatherDisplay:10.37,2013-07-24 14:34:00,
2013-07-24 09:39:00,77.5,69.3,29.99,North,5,18.4,18.4,76,0.00,OVC,,0.00,88.0,WeatherDisplay:10.37,2013-07-24 14:39:00,
2013-07-24 09:44:00,77.2,69.8,29.99,NNE,12,12.7,12.7,78,0.00,-RA,,0.00,109.0,WeatherDisplay:10.37,2013-07-24 14:44:00,
2013-07-24 09:49:00,76.9,69.9,29.99,NNW,342,13.8,13.8,79,0.00,-RA,,0.00,81.0,WeatherDisplay:10.37,2013-07-24 14:49:00,
2013-07-24 09:54:00,76.7,70.1,29.99,NNW,342,11.5,11.5,80,0.02,-RA,,0.03,72.0,WeatherDisplay:10.37,2013-07-24 14:54:00,
2013-07-24 09:59:00,76.4,70.1,29.98,ENE,69,10.4,10.4,81,0.03,-RA,,0.03,81.0,WeatherDisplay:10.37,2013-07-24 14:59:00,
2013-07-24 10:05:00,76.2,70.3,29.98,NNE,22,5.8,5.8,82,0.03,-RA,,0.03,77.0,WeatherDisplay:10.37,2013-07-24 15:05:00,
2013-07-24 10:10:00,75.9,70.0,29.97,North,360,4.6,4.6,82,0.03,-RA,,0.03,37.0,WeatherDisplay:10.37,2013-07-24 15:10:00,
2013-07-24 10:15:00,75.7,70.2,29.97,NNW,347,6.9,6.9,83,0.03,-RA,,0.03,49.0,WeatherDisplay:10.37,2013-07-24 15:15:00,
2013-07-24 10:20:00,75.4,69.9,29.96,NNE,28,3.5,3.5,83,0.03,-RA,,0.03,62.0,WeatherDisplay:10.37,2013-07-24 15:20:00,
2013-07-24 10:25:00,75.3,69.8,29.95,NNE,22,2.3,2.3,83,0.03,-RA,,0.03,107.0,WeatherDisplay:10.37,2013-07-24 15:25:00,
2013-07-24 10:30:00,75.2,70.0,29.95,ENE,61,2.3,2.3,84,0.03,-RA,,0.03,128.0,WeatherDisplay:10.37,2013-07-24 15:30:00,
2013-07-24 10:35:00,75.2,70.0,29.94,SSW,193,1.2,1.2,84,0.03,-RA,,0.03,183.0,WeatherDisplay:10.37,2013-07-24 15:35:00,
2013-07-24 10:40:00,75.3,70.5,29.93,SSW,194,1.2,0.0,85,0.03,-RA,,0.03,420.0,WeatherDisplay:10.37,2013-07-24 15:40:00,
2013-07-24 10:45:00,75.8,71.7,29.93,SSW,194,1.2,0.0,87,0.03,-RA,,0.03,271.0,WeatherDisplay:10.37,2013-07-24 15:45:00,
2013-07-24 10:50:00,76.3,72.1,29.93,SSW,199,3.5,3.5,87,0.03,-RA,,0.03,264.0,WeatherDisplay:10.37,2013-07-24 15:50:00,
2013-07-24 10:55:00,76.4,72.2,29.93,SW,223,3.5,3.5,87,0.03,-RA,,0.03,327.0,WeatherDisplay:10.37,2013-07-24 15:55:00,
2013-07-24 11:00:00,76.7,72.5,29.93,WSW,248,3.5,3.5,87,0.00,-RA,,0.03,355.0,WeatherDisplay:10.37,2013-07-24 16:00:00,
2013-07-24 11:05:00,76.7,72.5,29.92,South,188,2.3,2.3,87,0.00,-RA,,0.03,373.0,WeatherDisplay:10.37,2013-07-24 16:05:00,
2013-07-24 11:10:00,77.0,72.5,29.91,South,188,3.5,3.5,86,0.00,-RA,,0.03,353.0,WeatherDisplay:10.37,2013-07-24 16:10:00,
2013-07-24 11:15:00,77.4,72.9,29.90,WSW,246,5.8,5.8,86,0.00,-RA,,0.03,373.0,WeatherDisplay:10.37,2013-07-24 16:15:00,
2013-07-24 11:20:00,77.6,72.7,29.89,WSW,242,5.8,5.8,85,0.00,-RA,,0.03,499.0,WeatherDisplay:10.37,2013-07-24 16:20:00,
2013-07-24 11:25:00,78.1,72.9,29.88,SW,219,4.0,4.0,84,0.00,-RA,,0.03,506.0,WeatherDisplay:10.37,2013-07-24 16:25:00,
2013-07-24 11:30:00,78.7,72.7,29.87,SW,220,10.4,10.4,82,0.00,-RA,,0.03,373.0,WeatherDisplay:10.37,2013-07-24 16:30:00,
2013-07-24 11:35:00,79.1,73.1,29.86,SW,217,10.4,10.4,82,0.00,-RA,,0.03,364.0,WeatherDisplay:10.37,2013-07-24 16:35:00,
2013-07-24 11:40:00,79.5,73.2,29.86,South,169,6.9,6.9,81,0.00,-RA,,0.03,325.0,WeatherDisplay:10.37,2013-07-24 16:40:00,
2013-07-24 11:45:00,79.7,72.6,29.85,SW,227,8.1,8.1,79,0.00,-RA,,0.03,290.0,WeatherDisplay:10.37,2013-07-24 16:45:00,
2013-07-24 11:50:00,80.0,72.5,29.84,South,185,11.5,11.5,78,0.00,-RA,,0.03,283.0,WeatherDisplay:10.37,2013-07-24 16:50:00,
2013-07-24 11:55:00,80.3,72.8,29.83,SSW,204,12.0,12.0,78,0.00,-RA,,0.03,297.0,WeatherDisplay:10.37,2013-07-24 16:55:00,
2013-07-24 12:00:00,80.5,72.6,29.83,SSW,206,10.4,10.4,77,0.00,-RA,,0.03,316.0,WeatherDisplay:10.37,2013-07-24 17:00:00,
2013-07-24 12:05:00,80.7,72.4,29.82,SSW,195,9.0,9.0,76,0.00,SCT,,0.03,338.0,WeatherDisplay:10.37,2013-07-24 17:05:00,
2013-07-24 12:10:00,80.9,72.6,29.81,SW,215,12.7,12.7,76,0.00,SCT,,0.03,348.0,WeatherDisplay:10.37,2013-07-24 17:10:00,
2013-07-24 12:15:00,81.2,72.9,29.80,SW,224,8.1,8.1,76,0.00,SCT,,0.03,422.0,WeatherDisplay:10.37,2013-07-24 17:15:00,
2013-07-24 12:20:00,81.6,72.9,29.82,SSW,206,12.7,12.7,75,0.00,SCT,,0.03,399.0,WeatherDisplay:10.37,2013-07-24 17:20:00,
2013-07-24 12:25:00,81.9,72.8,29.84,SSW,209,11.5,11.5,74,0.00,SCT,,0.03,360.0,WeatherDisplay:10.37,2013-07-24 17:25:00,
2013-07-24 12:30:00,82.2,73.1,29.84,SW,222,8.1,8.1,74,0.00,SCT,,0.03,322.0,WeatherDisplay:10.37,2013-07-24 17:30:00,
2013-07-24 12:35:00,82.3,73.2,29.84,South,188,5.8,5.8,74,0.00,SCT,,0.03,302.0,WeatherDisplay:10.37,2013-07-24 17:35:00,
2013-07-24 12:40:00,82.5,73.8,29.83,SW,229,6.9,6.9,75,0.00,SCT,,0.03,271.0,WeatherDisplay:10.37,2013-07-24 17:40:00,
2013-07-24 12:45:00,82.7,74.0,29.83,SW,215,4.0,4.0,75,0.00,SCT,,0.03,253.0,WeatherDisplay:10.37,2013-07-24 17:45:00,
2013-07-24 12:50:00,82.8,73.7,29.83,SSW,199,6.9,6.9,74,0.00,SCT,,0.03,264.0,WeatherDisplay:10.37,2013-07-24 17:50:00,
2013-07-24 12:55:00,82.9,73.4,29.83,SW,219,3.5,4.0,73,0.00,SCT,,0.03,250.0,WeatherDisplay:10.37,2013-07-24 17:55:00,
2013-07-24 13:00:00,83.0,73.4,29.83,South,173,4.6,4.6,73,0.00,SCT,,0.03,237.0,WeatherDisplay:10.37,2013-07-24 18:00:00,
2013-07-24 13:05:00,83.0,73.4,29.83,SW,227,2.0,7.0,73,0.00,CLR,,0.03,257.0,WeatherDisplay:10.37,2013-07-24 18:05:00,
2013-07-24 13:10:00,83.1,73.5,29.83,SW,233,3.0,8.0,73,0.00,CLR,,0.03,274.0,WeatherDisplay:10.37,2013-07-24 18:10:00,
2013-07-24 13:15:00,83.2,73.7,29.84,WSW,245,5.0,10.0,73,0.00,CLR,,0.03,279.0,WeatherDisplay:10.37,2013-07-24 18:15:00,
2013-07-24 13:20:00,83.4,73.8,29.84,SW,221,6.9,6.9,73,0.00,CLR,,0.03,311.0,WeatherDisplay:10.37,2013-07-24 18:20:00,
2013-07-24 13:25:00,83.6,74.1,29.84,SW,232,2.0,6.0,73,0.00,CLR,,0.03,417.0,WeatherDisplay:10.37,2013-07-24 18:25:00,
2013-07-24 13:30:00,84.3,75.1,29.84,SW,234,4.6,4.6,74,0.00,CLR,,0.03,439.0,WeatherDisplay:10.37,2013-07-24 18:30:00,
2013-07-24 13:35:00,85.6,75.5,29.84,SW,232,5.0,8.0,72,0.00,CLR,,0.03,939.0,WeatherDisplay:10.37,2013-07-24 18:35:00,
2013-07-24 13:40:00,86.1,75.2,29.84,West,259,5.0,8.0,70,0.00,CLR,,0.03,381.0,WeatherDisplay:10.37,2013-07-24 18:40:00,
2013-07-24 13:45:00,86.8,75.4,29.84,SW,215,11.5,11.5,69,0.00,CLR,,0.03,912.0,WeatherDisplay:10.37,2013-07-24 18:45:00,
2013-07-24 13:50:00,87.3,75.4,29.84,WSW,245,5.8,5.8,68,0.00,CLR,,0.03,701.0,WeatherDisplay:10.37,2013-07-24 18:50:00,
2013-07-24 13:55:00,87.4,75.1,29.84,WSW,253,3.0,6.0,67,0.00,CLR,,0.03,626.0,WeatherDisplay:10.37,2013-07-24 18:55:00,
2013-07-24 14:00:00,87.6,76.2,29.84,NW,321,5.0,5.0,69,0.00,CLR,,0.03,805.0,WeatherDisplay:10.37,2013-07-24 19:00:00,
2013-07-24 14:05:00,88.1,76.2,29.84,SW,217,7.0,7.0,68,0.00,CLR,,0.03,962.0,WeatherDisplay:10.37,2013-07-24 19:05:00,
2013-07-24 14:10:00,88.7,75.9,29.84,SW,224,5.8,5.8,66,0.00,CLR,,0.03,956.0,WeatherDisplay:10.37,2013-07-24 19:10:00,
2013-07-24 14:15:00,88.7,75.9,29.84,SW,227,2.3,2.3,66,0.00,CLR,,0.03,956.0,WeatherDisplay:10.37,2013-07-24 19:15:00,
2013-07-24 14:20:00,90.3,76.5,29.84,NW,308,9.2,9.2,64,0.00,CLR,,0.03,858.0,WeatherDisplay:10.37,2013-07-24 19:20:00,
2013-07-24 14:25:00,90.9,75.1,29.84,WNW,292,9.2,9.2,60,0.00,CLR,,0.03,807.0,WeatherDisplay:10.37,2013-07-24 19:25:00,
2013-07-24 14:30:00,90.5,74.7,29.84,West,259,10.4,10.4,60,0.00,CLR,,0.03,828.0,WeatherDisplay:10.37,2013-07-24 19:30:00,
2013-07-24 14:35:00,90.6,74.8,29.84,NW,321,6.0,7.1,60,0.00,CLR,,0.03,814.0,WeatherDisplay:10.37,2013-07-24 19:35:00,
2013-07-24 14:40:00,91.5,74.6,29.84,SW,215,6.9,6.9,58,0.00,CLR,,0.03,754.0,WeatherDisplay:10.37,2013-07-24 19:40:00,
2013-07-24 14:45:00,91.7,75.3,29.84,West,270,6.0,6.0,59,0.00,CLR,,0.03,789.0,WeatherDisplay:10.37,2013-07-24 19:45:00,
2013-07-24 14:50:00,92.0,75.6,29.84,NW,306,9.2,9.2,59,0.00,CLR,,0.03,793.0,WeatherDisplay:10.37,2013-07-24 19:50:00,
2013-07-24 14:55:00,92.1,74.7,29.84,WSW,256,11.5,11.5,57,0.00,CLR,,0.03,858.0,WeatherDisplay:10.37,2013-07-24 19:55:00,
2013-07-24 15:00:00,92.1,74.7,29.84,NW,318,5.8,5.8,57,0.00,CLR,,0.03,853.0,WeatherDisplay:10.37,2013-07-24 20:00:00,
2013-07-24 15:05:00,92.4,73.3,29.84,NE,43,4.0,4.0,54,0.00,CLR,,0.03,823.0,WeatherDisplay:10.37,2013-07-24 20:05:00,
2013-07-24 15:10:00,92.8,74.3,29.85,NNW,331,6.9,6.9,55,0.00,CLR,,0.03,780.0,WeatherDisplay:10.37,2013-07-24 20:10:00,
2013-07-24 15:15:00,93.3,74.2,29.85,NNW,333,8.0,8.0,54,0.00,CLR,,0.03,777.0,WeatherDisplay:10.37,2013-07-24 20:15:00,
2013-07-24 15:20:00,94.1,72.6,29.84,NNW,336,8.1,8.1,50,0.00,CLR,,0.03,784.0,WeatherDisplay:10.37,2013-07-24 20:20:00,
2013-07-24 15:25:00,94.4,74.1,29.84,NW,323,9.0,9.0,52,0.00,CLR,,0.03,768.0,WeatherDisplay:10.37,2013-07-24 20:25:00,
2013-07-24 15:30:00,94.5,72.4,29.84,NNE,32,6.9,6.9,49,0.00,CLR,,0.03,759.0,WeatherDisplay:10.37,2013-07-24 20:30:00,
2013-07-24 15:35:00,94.7,73.2,29.84,NE,40,3.5,3.5,50,0.00,CLR,,0.03,754.0,WeatherDisplay:10.37,2013-07-24 20:35:00,
2013-07-24 15:40:00,95.0,73.4,29.84,NNE,23,3.5,3.5,50,0.00,CLR,,0.03,731.0,WeatherDisplay:10.37,2013-07-24 20:40:00,
2013-07-24 15:45:00,95.1,74.1,29.84,NNW,329,8.1,8.1,51,0.00,CLR,,0.03,733.0,WeatherDisplay:10.37,2013-07-24 20:45:00,
2013-07-24 15:50:00,95.4,73.8,29.84,NW,320,4.0,4.0,50,0.00,CLR,,0.03,703.0,WeatherDisplay:10.37,2013-07-24 20:50:00,
2013-07-24 15:55:00,95.6,72.8,29.84,West,271,3.5,3.5,48,0.00,CLR,,0.03,691.0,WeatherDisplay:10.37,2013-07-24 20:55:00,
2013-07-24 16:00:00,95.6,73.4,29.84,ENE,70,6.0,6.0,49,0.00,CLR,,0.03,726.0,WeatherDisplay:10.37,2013-07-24 21:00:00,
2013-07-24 16:05:00,95.5,74.5,29.83,East,92,3.5,3.5,51,0.00,FEW,,0.03,710.0,WeatherDisplay:10.37,2013-07-24 21:05:00,
2013-07-24 16:10:00,95.5,73.9,29.83,ESE,106,5.0,5.0,50,0.00,FEW,,0.03,652.0,WeatherDisplay:10.37,2013-07-24 21:10:00,
2013-07-24 16:15:00,95.6,74.0,29.83,ESE,108,9.2,9.2,50,0.00,FEW,,0.03,640.0,WeatherDisplay:10.37,2013-07-24 21:15:00,
2013-07-24 16:21:00,95.5,74.5,29.83,ENE,57,2.3,2.3,51,0.00,FEW,,0.03,619.0,WeatherDisplay:10.37,2013-07-24 21:21:00,
2013-07-24 16:26:00,95.6,75.2,29.83,East,98,4.0,4.0,52,0.00,FEW,,0.03,603.0,WeatherDisplay:10.37,2013-07-24 21:26:00,
2013-07-24 16:31:00,95.5,74.5,29.83,East,91,5.8,5.8,51,0.00,FEW,,0.03,615.0,WeatherDisplay:10.37,2013-07-24 21:31:00,
2013-07-24 16:36:00,95.4,73.8,29.83,East,94,11.5,11.5,50,0.00,FEW,,0.03,624.0,WeatherDisplay:10.37,2013-07-24 21:36:00,
2013-07-24 16:41:00,94.6,73.1,29.83,East,86,11.5,11.5,50,0.00,FEW,,0.03,624.0,WeatherDisplay:10.37,2013-07-24 21:41:00,
2013-07-24 16:46:00,94.4,73.5,29.83,ENE,72,5.8,5.8,51,0.00,FEW,,0.03,612.0,WeatherDisplay:10.37,2013-07-24 21:46:00,
2013-07-24 16:51:00,94.6,73.7,29.83,ESE,107,7.0,7.0,51,0.00,FEW,,0.03,599.0,WeatherDisplay:10.37,2013-07-24 21:51:00,
2013-07-24 16:56:00,94.4,74.1,29.83,ENE,63,11.5,11.5,52,0.00,FEW,,0.03,603.0,WeatherDisplay:10.37,2013-07-24 21:56:00,
2013-07-24 17:01:00,94.1,73.2,29.83,ENE,74,8.1,8.1,51,0.00,FEW,,0.03,566.0,WeatherDisplay:10.37,2013-07-24 22:01:00,
2013-07-24 17:06:00,93.9,73.6,29.83,ENE,73,5.8,5.8,52,0.00,CLR,,0.03,577.0,WeatherDisplay:10.37,2013-07-24 22:06:00,
2013-07-24 17:11:00,93.8,73.5,29.83,ESE,105,8.1,8.1,52,0.00,CLR,,0.03,561.0,WeatherDisplay:10.37,2013-07-24 22:11:00,
2013-07-24 17:16:00,93.6,72.7,29.83,ESE,110,8.1,8.1,51,0.00,CLR,,0.03,545.0,WeatherDisplay:10.37,2013-07-24 22:16:00,
2013-07-24 17:21:00,93.6,73.3,29.83,East,94,11.5,11.5,52,0.00,CLR,,0.03,529.0,WeatherDisplay:10.37,2013-07-24 22:21:00,
2013-07-24 17:26:00,93.8,72.9,29.83,East,98,7.0,7.0,51,0.00,CLR,,0.03,506.0,WeatherDisplay:10.37,2013-07-24 22:26:00,
2013-07-24 17:31:00,93.7,73.4,29.83,East,82,5.8,5.8,52,0.00,CLR,,0.03,469.0,WeatherDisplay:10.37,2013-07-24 22:31:00,
2013-07-24 17:36:00,93.7,72.8,29.83,ESE,110,8.0,8.0,51,0.00,CLR,,0.03,473.0,WeatherDisplay:10.37,2013-07-24 22:36:00,
2013-07-24 17:41:00,93.7,73.4,29.83,NNW,336,9.0,9.0,52,0.00,CLR,,0.03,448.0,WeatherDisplay:10.37,2013-07-24 22:41:00,
2013-07-24 17:46:00,93.8,72.9,29.83,NE,54,11.5,11.5,51,0.00,CLR,,0.03,443.0,WeatherDisplay:10.37,2013-07-24 22:46:00,
2013-07-24 17:52:00,93.9,73.0,29.83,ESE,121,11.5,11.5,51,0.00,CLR,,0.03,424.0,WeatherDisplay:10.37,2013-07-24 22:52:00,
2013-07-24 17:57:00,94.0,73.7,29.83,East,83,6.9,6.9,52,0.00,CLR,,0.03,406.0,WeatherDisplay:10.37,2013-07-24 22:57:00,
2013-07-24 18:02:00,94.1,73.2,29.83,ENE,66,12.7,12.7,51,0.00,CLR,,0.03,396.0,WeatherDisplay:10.37,2013-07-24 23:02:00,
2013-07-24 18:07:00,94.1,73.8,29.83,NE,51,11.5,11.5,52,0.00,CLR,,0.03,385.0,WeatherDisplay:10.37,2013-07-24 23:07:00,
2013-07-24 18:12:00,94.1,73.8,29.83,ENE,67,10.4,10.4,52,0.00,CLR,,0.03,338.0,WeatherDisplay:10.37,2013-07-24 23:12:00,
2013-07-24 18:17:00,94.0,73.7,29.83,East,82,8.1,8.1,52,0.00,CLR,,0.03,338.0,WeatherDisplay:10.37,2013-07-24 23:17:00,
2013-07-24 18:22:00,93.8,73.5,29.83,ESE,116,11.5,11.5,52,0.00,CLR,,0.03,327.0,WeatherDisplay:10.37,2013-07-24 23:22:00,
2013-07-24 18:27:00,93.7,73.4,29.83,ESE,103,9.2,9.2,52,0.00,CLR,,0.03,315.0,WeatherDisplay:10.37,2013-07-24 23:27:00,
2013-07-24 18:32:00,93.5,73.2,29.83,ENE,71,6.9,6.9,52,0.00,CLR,,0.03,297.0,WeatherDisplay:10.37,2013-07-24 23:32:00,
2013-07-24 18:37:00,93.5,73.2,29.83,ENE,71,9.2,9.2,52,0.00,CLR,,0.03,281.0,WeatherDisplay:10.37,2013-07-24 23:37:00,
2013-07-24 18:42:00,93.4,73.1,29.83,ENE,73,6.9,6.9,52,0.00,CLR,,0.03,264.0,WeatherDisplay:10.37,2013-07-24 23:42:00,
2013-07-24 18:47:00,93.3,73.0,29.83,ENE,57,8.1,8.1,52,0.00,CLR,,0.03,248.0,WeatherDisplay:10.37,2013-07-24 23:47:00,
2013-07-24 18:52:00,93.3,73.6,29.83,ESE,111,11.5,11.5,53,0.00,CLR,,0.03,234.0,WeatherDisplay:10.37,2013-07-24 23:52:00,
2013-07-24 18:57:00,93.1,74.0,29.83,East,88,11.5,11.5,54,0.00,CLR,,0.03,220.0,WeatherDisplay:10.37,2013-07-24 23:57:00,
2013-07-24 19:02:00,92.9,73.8,29.83,ENE,60,11.5,11.5,54,0.00,CLR,,0.03,202.0,WeatherDisplay:10.37,2013-07-25 00:02:00,
2013-07-24 19:07:00,92.6,74.1,29.83,ENE,68,9.2,9.2,55,0.00,CLR,,0.03,186.0,WeatherDisplay:10.37,2013-07-25 00:07:00,
2013-07-24 19:12:00,92.4,73.9,29.83,ENE,58,8.1,8.1,55,0.00,CLR,,0.03,171.0,WeatherDisplay:10.37,2013-07-25 00:12:00,
2013-07-24 19:17:00,92.2,74.2,29.84,NE,55,8.1,8.1,56,0.00,CLR,,0.03,151.0,WeatherDisplay:10.37,2013-07-25 00:17:00,
2013-07-24 19:22:00,92.0,74.6,29.84,ENE,76,10.4,10.4,57,0.00,CLR,,0.03,135.0,WeatherDisplay:10.37,2013-07-25 00:22:00,
2013-07-24 19:27:00,91.5,74.1,29.84,ESE,123,11.0,11.0,57,0.00,CLR,,0.03,118.0,WeatherDisplay:10.37,2013-07-25 00:27:00,
2013-07-24 19:32:00,91.1,73.7,29.84,ESE,112,12.7,12.7,57,0.00,CLR,,0.03,100.0,WeatherDisplay:10.37,2013-07-25 00:32:00,
2013-07-24 19:37:00,90.7,73.9,29.84,East,89,11.5,11.5,58,0.00,CLR,,0.03,88.0,WeatherDisplay:10.37,2013-07-25 00:37:00,
2013-07-24 19:42:00,90.4,74.1,29.84,ESE,108,8.1,8.1,59,0.00,CLR,,0.03,72.0,WeatherDisplay:10.37,2013-07-25 00:42:00,
2013-07-24 19:47:00,90.2,73.9,29.84,ESE,119,9.2,9.2,59,0.00,CLR,,0.03,58.0,WeatherDisplay:10.37,2013-07-25 00:47:00,
2013-07-24 19:52:00,89.8,74.1,29.84,ESE,119,11.5,11.5,60,0.00,CLR,,0.03,46.0,WeatherDisplay:10.37,2013-07-25 00:52:00,
2013-07-24 19:57:00,89.4,73.7,29.85,East,101,8.1,8.1,60,0.00,CLR,,0.03,35.0,WeatherDisplay:10.37,2013-07-25 00:57:00,
2013-07-24 20:02:00,89.3,74.1,29.85,ENE,61,9.2,9.2,61,0.00,CLR,,0.03,28.0,WeatherDisplay:10.37,2013-07-25 01:02:00,
2013-07-24 20:07:00,89.0,73.8,29.85,ENE,76,6.0,6.0,61,0.00,CLR,,0.03,21.0,WeatherDisplay:10.37,2013-07-25 01:07:00,
2013-07-24 20:12:00,88.8,74.1,29.85,ENE,63,8.1,8.1,62,0.00,CLR,,0.03,16.0,WeatherDisplay:10.37,2013-07-25 01:12:00,
2013-07-24 20:17:00,88.5,73.8,29.86,ESE,114,9.2,9.2,62,0.00,CLR,,0.03,7.0,WeatherDisplay:10.37,2013-07-25 01:17:00,
2013-07-24 20:22:00,88.3,73.6,29.85,East,95,6.9,6.9,62,0.00,CLR,,0.03,5.0,WeatherDisplay:10.37,2013-07-25 01:22:00,
2013-07-24 20:27:00,88.0,73.8,29.86,ESE,114,5.8,5.8,63,0.00,CLR,,0.03,0.0,WeatherDisplay:10.37,2013-07-25 01:27:00,
2013-07-24 20:32:00,87.6,73.4,29.86,SE,130,9.2,9.2,63,0.00,CLR,,0.03,0.0,WeatherDisplay:10.37,2013-07-25 01:32:00,
2013-07-24 20:37:00,87.3,73.6,29.86,East,92,4.6,4.6,64,0.00,CLR,,0.03,0.0,WeatherDisplay:10.37,2013-07-25 01:37:00,
2013-07-24 20:42:00,87.0,73.8,29.86,East,92,12.0,12.0,65,0.00,CLR,,0.03,0.0,WeatherDisplay:10.37,2013-07-25 01:42:00,
2013-07-24 20:47:00,86.6,73.4,29.86,ENE,78,7.0,7.0,65,0.00,CLR,,0.03,0.0,WeatherDisplay:10.37,2013-07-25 01:47:00,
2013-07-24 20:52:00,86.3,73.1,29.87,East,98,5.8,5.8,65,0.00,CLR,,0.03,0.0,WeatherDisplay:10.37,2013-07-25 01:52:00,
2013-07-24 20:57:00,86.1,73.4,29.86,East,87,5.8,5.8,66,0.00,CLR,,0.03,0.0,WeatherDisplay:10.37,2013-07-25 01:57:00,
2013-07-24 21:02:00,85.8,73.1,29.87,East,88,10.0,10.0,66,0.00,CLR,,0.03,0.0,WeatherDisplay:10.37,2013-07-25 02:02:00,
2013-07-24 21:07:00,85.5,72.8,29.87,ENE,68,5.8,5.8,66,0.00,CLR,,0.03,0.0,WeatherDisplay:10.37,2013-07-25 02:07:00,
2013-07-24 21:12:00,85.2,73.0,29.87,ENE,57,8.1,8.1,67,0.00,CLR,,0.03,0.0,WeatherDisplay:10.37,2013-07-25 02:12:00,
2013-07-24 21:18:00,84.9,72.7,29.87,ENE,66,6.9,6.9,67,0.00,CLR,,0.03,0.0,WeatherDisplay:10.37,2013-07-25 02:18:00,
2013-07-24 21:23:00,84.7,73.0,29.87,East,83,6.9,6.9,68,0.00,CLR,,0.03,0.0,WeatherDisplay:10.37,2013-07-25 02:23:00,
2013-07-24 21:28:00,84.5,72.8,29.88,ENE,67,4.6,4.6,68,0.00,CLR,,0.03,0.0,WeatherDisplay:10.37,2013-07-25 02:28:00,
2013-07-24 21:33:00,84.3,72.6,29.88,East,87,5.8,5.8,68,0.00,CLR,,0.03,0.0,WeatherDisplay:10.37,2013-07-25 02:33:00,
2013-07-24 21:38:00,84.1,72.4,29.88,East,82,5.8,5.8,68,0.00,CLR,,0.03,0.0,WeatherDisplay:10.37,2013-07-25 02:38:00,
2013-07-24 21:43:00,83.9,72.2,29.88,ENE,74,8.1,8.1,68,0.00,CLR,,0.03,0.0,WeatherDisplay:10.37,2013-07-25 02:43:00,
2013-07-24 21:48:00,83.7,72.4,29.88,ENE,64,5.0,5.0,69,0.00,CLR,,0.03,0.0,WeatherDisplay:10.37,2013-07-25 02:48:00,
2013-07-24 21:53:00,83.5,72.3,29.88,East,95,4.6,4.6,69,0.00,CLR,,0.03,0.0,WeatherDisplay:10.37,2013-07-25 02:53:00,
2013-07-24 21:58:00,83.3,72.1,29.88,East,96,5.8,5.8,69,0.00,CLR,,0.03,0.0,WeatherDisplay:10.37,2013-07-25 02:58:00,
2013-07-24 22:03:00,83.2,72.4,29.88,East,90,4.6,4.6,70,0.00,CLR,,0.03,0.0,WeatherDisplay:10.37,2013-07-25 03:03:00,
2013-07-24 22:08:00,83.0,72.2,29.89,East,87,3.5,3.5,70,0.00,CLR,,0.03,0.0,WeatherDisplay:10.37,2013-07-25 03:08:00,
2013-07-24 22:13:00,82.8,72.0,29.89,ESE,116,3.5,3.5,70,0.00,CLR,,0.03,0.0,WeatherDisplay:10.37,2013-07-25 03:13:00,
2013-07-24 22:18:00,82.7,71.9,29.90,ESE,112,1.2,0.0,70,0.00,CLR,,0.03,0.0,WeatherDisplay:10.37,2013-07-25 03:18:00,
2013-07-24 22:24:00,82.5,71.7,29.90,East,84,2.3,2.3,70,0.00,CLR,,0.03,0.0,WeatherDisplay:10.37,2013-07-25 03:24:00,
2013-07-24 22:29:00,82.3,72.0,29.91,East,79,2.3,2.3,71,0.00,CLR,,0.03,0.0,WeatherDisplay:10.37,2013-07-25 03:29:00,
2013-07-24 22:34:00,82.2,71.9,29.91,ENE,62,3.5,3.5,71,0.00,CLR,,0.03,0.0,WeatherDisplay:10.37,2013-07-25 03:34:00,
2013-07-24 22:39:00,82.0,72.1,29.91,ENE,65,3.5,3.5,72,0.00,CLR,,0.03,0.0,WeatherDisplay:10.37,2013-07-25 03:39:00,
2013-07-24 22:44:00,81.8,71.9,29.91,NE,55,4.6,4.6,72,0.00,CLR,,0.03,0.0,WeatherDisplay:10.37,2013-07-25 03:44:00,
2013-07-24 22:49:00,81.7,72.2,29.91,East,90,3.5,3.5,73,0.00,CLR,,0.03,0.0,WeatherDisplay:10.37,2013-07-25 03:49:00,
2013-07-24 22:55:00,81.5,72.0,29.91,ENE,75,3.5,3.5,73,0.00,CLR,,0.03,0.0,WeatherDisplay:10.37,2013-07-25 03:55:00,
2013-07-24 23:00:00,81.4,71.9,29.91,ENE,77,3.0,5.0,73,0.00,CLR,,0.03,0.0,WeatherDisplay:10.37,2013-07-25 04:00:00,
2013-07-24 23:01:00,81.3,71.8,29.91,ENE,71,4.6,4.6,73,0.00,CLR,,0.03,0.0,WeatherDisplay:10.37,2013-07-25 04:01:00,
2013-07-24 23:02:00,81.3,71.8,29.91,East,84,4.6,4.6,73,0.00,CLR,,0.03,0.0,WeatherDisplay:10.37,2013-07-25 04:02:00,
2013-07-24 23:07:00,81.1,72.0,29.91,ENE,73,2.3,2.3,74,0.00,CLR,,0.03,0.0,WeatherDisplay:10.37,2013-07-25 04:07:00,
2013-07-24 23:12:00,81.0,71.9,29.91,ENE,61,3.5,3.5,74,0.00,CLR,,0.03,0.0,WeatherDisplay:10.37,2013-07-25 04:12:00,
2013-07-24 23:17:00,80.9,71.8,29.92,ENE,69,3.5,3.5,74,0.00,CLR,,0.03,0.0,WeatherDisplay:10.37,2013-07-25 04:17:00,
2013-07-24 23:22:00,80.8,72.1,29.92,ENE,69,4.0,4.0,75,0.00,CLR,,0.03,0.0,WeatherDisplay:10.37,2013-07-25 04:22:00,
2013-07-24 23:27:00,80.7,72.0,29.92,East,98,3.5,3.5,75,0.00,CLR,,0.03,0.0,WeatherDisplay:10.37,2013-07-25 04:27:00,
2013-07-24 23:32:00,80.6,71.9,29.92,East,94,4.6,4.6,75,0.00,CLR,,0.03,0.0,WeatherDisplay:10.37,2013-07-25 04:32:00,
2013-07-24 23:37:00,80.5,71.8,29.92,ENE,69,3.5,3.5,75,0.00,CLR,,0.03,0.0,WeatherDisplay:10.37,2013-07-25 04:37:00,
2013-07-24 23:42:00,80.4,71.7,29.92,East,80,4.6,4.6,75,0.00,CLR,,0.03,0.0,WeatherDisplay:10.37,2013-07-25 04:42:00,
2013-07-24 23:48:00,80.3,72.0,29.92,East,79,3.5,3.5,76,0.00,CLR,,0.03,0.0,WeatherDisplay:10.37,2013-07-25 04:48:00,
2013-07-24 23:53:00,80.2,71.9,29.92,East,82,3.5,3.5,76,0.00,CLR,,0.03,0.0,WeatherDisplay:10.37,2013-07-25 04:53:00,
2013-07-24 23:58:00,80.1,71.8,29.92,ENE,78,3.5,3.5,76,0.00,CLR,,0.03,0.0,WeatherDisplay:10.37,2013-07-25 04:58:00,